EW1979 Weather Reports


time (UTC)temp
F
wind
direction
speed
knots
gust
knots
rain 1hr
in
rain 24hr
in
rain mn
in
humidity
%
barometer
mb
20260507101503 58 11 0.0 0.0 0.00 0.00 0.00 68 1012.6
20260507093003 59 9 0.0 0.0 0.00 0.00 0.00 65 1012.1
20260507091509 59 5 0.0 0.0 0.00 0.00 0.00 65 1012.1
20260507084603 59 9 0.0 0.0 0.00 0.00 0.00 63 1011.3
20260507081504 59 11 0.0 0.0 0.00 0.00 0.00 60 1011.6
20260507080007 59 11 0.0 0.0 0.00 0.00 0.00 59 1011.9
20260507074507 59 11 0.0 0.0 0.00 0.00 0.00 59 1011.7
20260507071516 59 5 0.0 0.0 0.00 0.00 0.00 61 1011.4
20260507070008 59 5 0.0 0.0 0.00 0.00 0.00 62 1011.5
20260507061603 59 5 0.0 0.0 0.00 0.00 0.00 66 1011.2
20260507054503 59 5 0.0 0.0 0.00 0.00 0.00 67 1010.9
20260507053003 60 5 0.0 0.0 0.00 0.00 0.00 65 1011.0
20260507051508 60 5 0.0 0.0 0.00 0.00 0.00 64 1010.7
20260507044604 60 5 0.0 0.0 0.00 0.00 0.00 63 1011.5
20260507043003 60 16 0.0 0.0 0.00 0.00 0.00 63 1011.5
20260507041602 60 5 0.0 0.0 0.00 0.00 0.00 62 1011.5
20260507034502 60 15 0.0 0.0 0.00 0.00 0.00 59 1011.0
20260507033003 60 5 0.0 0.0 0.00 0.00 0.00 60 1010.9
20260507031503 60 5 0.0 0.0 0.00 0.00 0.00 62 1010.7
20260507030006 60 360 0.0 0.0 0.00 0.00 0.00 63 1010.6
20260507024632 60 360 0.0 0.0 0.00 0.00 0.00 64 1010.7
20260507023004 60 355 0.0 0.0 0.00 0.00 0.00 65 1010.5
20260507021603 60 5 0.0 0.0 0.00 0.00 0.00 65 1010.4
20260507020004 60 360 0.0 0.0 0.00 0.00 0.00 65 1010.2
20260507014508 60 5 0.0 0.0 0.00 0.00 0.00 66 1009.8
20260507013103 60 9 0.0 0.0 0.00 0.00 0.00 67 1009.7
20260507011604 60 360 0.0 0.0 0.00 0.00 0.00 68 1009.3
20260507004508 61 5 0.0 0.0 0.00 0.00 0.00 72 1009.0
20260507003002 61 9 0.0 0.0 0.00 0.00 0.00 75 1008.8
20260507001603 62 12 0.0 0.0 0.00 0.00 0.00 76 1008.8
20260506234614 63 9 0.0 0.0 0.00 0.00 0.00 80 1008.4
20260506233105 63 347 0.0 0.0 0.00 0.00 0.00 80 1008.0
20260506231517 65 5 0.0 0.0 0.00 0.00 0.00 80 1007.6
20260506230103 66 355 0.0 0.0 0.00 0.00 0.00 80 1007.6
20260506224602 68 340 0.0 0.0 0.00 0.00 0.00 78 1007.2
20260506221507 69 355 0.0 0.0 0.00 0.00 0.00 78 1007.1
20260506220007 69 355 0.0 0.0 0.00 0.00 0.00 77 1007.1
20260506214507 72 9 0.0 0.0 0.00 0.00 0.00 73 1006.5
20260506210008 79 9 0.0 0.0 0.00 0.00 0.00 72 1006.0
20260506204503 78 17 0.0 0.0 0.00 0.00 0.00 74 1006.2
20260506203002 78 15 0.0 0.0 0.00 0.00 0.00 75 1006.4
20260506200104 77 34 0.0 0.0 0.00 0.00 0.00 76 1006.5
20260506194503 77 36 0.0 0.0 0.00 0.00 0.00 76 1006.6
20260506193002 78 47 0.0 0.0 0.00 0.00 0.00 74 1006.7
20260506191508 79 47 0.0 0.0 0.00 0.00 0.00 73 1006.7
20260506184609 76 45 0.0 0.0 0.00 0.00 0.00 74 1006.8
20260506183106 75 44 0.0 0.0 0.00 0.00 0.00 74 1007.2
20260506181509 75 44 0.0 0.0 0.00 0.00 0.00 74 1007.4
20260506174603 76 42 0.0 0.0 0.00 0.00 0.00 69 1007.3
20260506173110 73 36 0.0 0.0 0.00 0.00 0.00 45 1007.9
20260506164603 71 12 0.0 0.0 0.00 0.00 0.00 68 1007.7
20260506161604 73 177 0.0 0.0 0.00 0.00 0.00 31 1007.6
20260506160117 73 177 0.0 0.0 0.00 0.00 0.00 100 1007.8
20260506153104 73 161 0.0 0.0 0.00 0.00 0.00 100 1007.5
20260506151506 72 160 0.0 0.0 0.00 0.00 0.00 100 1007.5
20260506150103 72 159 0.0 0.0 0.00 0.00 0.00 100 1007.3
20260506144609 72 157 0.0 0.0 0.00 0.00 0.00 100 1007.2
20260506141507 71 157 0.0 0.0 0.00 0.00 0.00 100 1007.3
20260506140002 71 156 0.0 0.0 0.00 0.00 0.00 100 1006.6
20260506134502 71 168 0.0 0.0 0.00 0.00 0.00 100 1006.2
20260506133003 71 168 0.0 0.0 0.00 0.00 0.00 100 1005.9
20260506131606 71 168 0.0 0.0 0.00 0.00 0.00 100 1005.7
20260506130104 71 168 0.0 0.0 0.00 0.00 0.00 100 1005.7
20260506124604 71 167 0.0 0.0 0.00 0.00 0.00 100 1005.0
20260506123007 71 167 0.0 0.0 0.00 0.00 0.00 100 1004.9
20260506121602 71 167 0.0 0.0 0.00 0.00 0.00 100 1004.9
20260506120008 71 167 0.0 0.0 0.00 0.00 0.00 100 1004.8
20260506113025 71 167 0.0 0.0 0.00 0.00 0.00 100 1004.8
20260506111510 71 168 0.0 0.0 0.00 0.00 0.00 100 1004.9
20260506110009 71 168 0.0 0.0 0.00 0.00 0.00 100 1005.1
20260506104501 71 168 0.0 0.0 0.00 0.00 0.00 100 1005.1
20260506103114 71 161 0.0 0.0 0.00 0.00 0.00 100 1005.0